EW2690 Weather Reports


Display with metric or nautical units.
time (UTC)temp
F
wind
direction
speed
MPH
gust
MPH
rain 1hr
in
rain 24hr
in
rain mn
in
humidity
%
barometer
mb
20260509060350 52 209 2.0 7.0 0.00 0.04 0.00 94 1018.1
20260509060026 52 193 3.0 7.0 0.00 0.04 0.00 94 1018.1
20260509053023 52 128 2.0 6.0 0.00 0.04 0.00 94 1018.3
20260509050323 52 144 1.0 4.0 0.00 0.04 0.00 94 1018.6
20260509050015 52 211 1.0 4.0 0.00 0.04 0.00 94 1018.6
20260509043040 52 212 3.0 7.0 0.00 0.04 0.00 94 1018.8
20260509040334 52 172 3.0 8.0 0.00 0.04 0.00 94 1019.1
20260509040020 52 210 4.0 8.0 0.00 0.04 0.00 94 1019.1
20260509033015 52 202 2.0 10.0 0.00 0.04 0.04 94 1019.3
20260509030309 52 215 3.0 7.0 0.00 0.04 0.04 94 1019.6
20260509030052 52 232 4.0 7.0 0.00 0.04 0.04 94 1019.6
20260509023031 52 200 2.0 5.0 0.00 0.04 0.04 95 1019.7
20260509020333 52 198 1.0 7.0 0.01 0.04 0.04 95 1019.8
20260509020114 52 192 2.0 7.0 0.01 0.04 0.04 95 1019.9
20260509013026 52 177 2.0 4.0 0.04 0.04 0.04 95 1019.8
20260509010344 52 217 2.0 5.0 0.03 0.03 0.03 93 1019.8
20260509010019 53 217 2.0 5.0 0.03 0.03 0.03 93 1019.8
20260509003019 54 242 5.0 7.0 0.00 0.00 0.00 87 1019.7
20260509000311 55 230 3.0 7.0 0.00 0.00 0.00 81 1019.6
20260509000113 55 224 3.0 9.0 0.00 0.00 0.00 81 1019.6
20260509000031 55 224 3.0 9.0 0.00 0.00 0.00 81 1019.6
20260508233055 55 123 0.0 2.0 0.00 0.00 0.00 78 1019.4
20260508230332 56 119 1.0 3.0 0.00 0.00 0.00 76 1019.4
20260508230023 56 119 2.0 3.0 0.00 0.00 0.00 76 1019.3
20260508223020 56 355 1.0 3.0 0.00 0.00 0.00 75 1019.6
20260508220317 57 323 3.0 4.0 0.00 0.00 0.00 74 1019.8
20260508220055 57 284 0.0 4.0 0.00 0.00 0.00 74 1019.7
20260508220013 57 284 0.0 4.0 0.00 0.00 0.00 74 1019.7
20260508213038 57 340 3.0 8.0 0.00 0.00 0.00 75 1019.8
20260508210338 56 307 4.0 9.0 0.00 0.00 0.00 74 1019.9
20260508210057 56 339 3.0 7.0 0.00 0.00 0.00 75 1019.9
20260508210015 56 339 3.0 7.0 0.00 0.00 0.00 75 1019.9
20260508203121 58 304 6.0 13.0 0.00 0.00 0.00 72 1020.2
20260508200314 60 302 3.0 9.0 0.00 0.00 0.00 72 1020.2
20260508200031 60 343 4.0 9.0 0.00 0.00 0.00 71 1020.4
20260508193057 59 296 3.0 10.0 0.00 0.00 0.00 74 1020.6
20260508190415 59 311 5.0 10.0 0.00 0.00 0.00 71 1020.8
20260508190009 59 66 4.0 10.0 0.00 0.00 0.00 70 1020.8
20260508183024 59 306 5.0 11.0 0.00 0.00 0.00 71 1021.2
20260508180334 58 9 4.0 10.0 0.00 0.00 0.00 72 1021.4
20260508180009 58 316 6.0 10.0 0.00 0.00 0.00 74 1021.4
20260508173138 57 355 2.0 11.0 0.00 0.00 0.00 75 1021.9
20260508170434 56 290 5.0 9.0 0.00 0.00 0.00 76 1022.2
20260508170331 56 290 5.0 9.0 0.00 0.00 0.00 76 1022.2
20260508170047 57 214 5.0 9.0 0.00 0.00 0.00 77 1022.2
20260508163049 54 290 5.0 8.0 0.00 0.00 0.00 81 1022.3
20260508160319 52 314 3.0 7.0 0.00 0.00 0.00 81 1022.8
20260508160041 52 312 2.0 7.0 0.00 0.00 0.00 81 1022.8
20260508153105 53 305 5.0 10.0 0.00 0.00 0.00 80 1022.6
20260508150339 54 334 2.0 8.0 0.00 0.00 0.00 80 1022.5
20260508150012 54 332 4.0 8.0 0.00 0.00 0.00 79 1022.5
20260508143031 53 279 4.0 8.0 0.00 0.00 0.00 84 1022.5
20260508140310 52 360 3.0 5.0 0.00 0.00 0.00 84 1022.5
20260508140053 52 311 1.0 5.0 0.00 0.00 0.00 85 1022.6
20260508140011 52 311 1.0 5.0 0.00 0.00 0.00 85 1022.6
20260508133033 51 300 6.0 12.0 0.00 0.00 0.00 86 1022.8
20260508130347 52 292 3.0 5.0 0.00 0.00 0.00 83 1022.6
20260508130042 52 288 3.0 5.0 0.00 0.00 0.00 83 1022.5
20260508123045 51 253 3.0 7.0 0.00 0.00 0.00 83 1022.3
20260508120320 49 252 3.0 6.0 0.00 0.00 0.00 84 1022.2
20260508120012 49 260 1.0 6.0 0.00 0.00 0.00 84 1022.2
20260508113117 47 221 2.0 5.0 0.00 0.00 0.00 85 1022.1
20260508110356 46 217 2.0 4.0 0.00 0.00 0.00 85 1022.0
20260508110025 46 202 1.0 3.0 0.00 0.00 0.00 85 1021.9
20260508103021 47 202 1.0 4.0 0.00 0.00 0.00 82 1021.5
20260508100319 47 227 2.0 4.0 0.00 0.00 0.00 81 1021.7
20260508100015 47 304 1.0 5.0 0.00 0.00 0.00 81 1021.8
20260508093017 47 298 1.0 5.0 0.00 0.00 0.00 79 1021.7
20260508090342 48 240 1.0 8.0 0.00 0.00 0.00 77 1021.8
20260508090056 48 227 2.0 8.0 0.00 0.00 0.00 77 1021.8
20260508083012 48 230 3.0 13.0 0.00 0.00 0.00 75 1021.6
20260508080331 47 211 4.0 8.0 0.00 0.00 0.00 74 1021.7
20260508080033 47 243 3.0 7.0 0.00 0.00 0.00 75 1021.6
20260508073047 47 241 2.0 5.0 0.00 0.00 0.00 77 1021.8
20260508070349 46 238 1.0 4.0 0.00 0.00 0.00 78 1021.8
20260508070048 45 238 1.0 4.0 0.00 0.00 0.00 78 1021.9
20260508063023 45 240 0.0 0.0 0.00 0.00 0.00 80 1022.0